Tracking 21476 objects as of 29-Sep-2020
HD Live streaming from Space Station
objects crossing your sky now

STARLINK-1175

Track STARLINK-1175 now!
10-day predictions
STARLINK-1175 is classified as:


NORAD ID: 45097
Int'l Code: 2020-006BF
Perigee: 311.4 km
Apogee: 316.9 km
Inclination: 53.0 °
Period: 90.7 minutes
Semi major axis: 6685 km
RCS: Unknown
Launch date: January 29, 2020
Source: United States (US)
Launch site: AIR FORCE EASTERN TEST RANGE (AFETR)
aabbcc
Your satellite tracking list
Your tracking list is empty




NASA's NSSDC Master Catalog

Two Line Element Set (TLE):
1 45097U 20006BF  20272.91667824 +.00111166 +00000-0 +39191-3 0  9991
2 45097 052.9975 092.2044 0004139 039.5657 027.0404 15.88310972001784
Source of the keplerian elements: AFSPC